ARG1885 SAWC-SAWH

Flight info

Callsign ARG1885
Flight time 0h 58m
Altitude 31000
Route DEVIS2H DEVIS UW52 GAL UW42 GRA DCT USU
Aircraft B738/M-SDFGIKLORWXY/LB1

Departure

Time 2026-05-07 00:15
Airport El Calafate - Commander Armando Tola International Airport (SAWC)

Arrival

Time 2026-05-07 01:14
Airport Ushuaia - Malvinas Argentinas International Airport (SAWH)
Time Latitude Longitude Altitude Speed Heading
2026-05-06 23:59 -50.28354 -72.05585 640 ft 0 kts 175°
2026-05-07 00:05 -50.28353 -72.05585 640 ft 2 kts 175°
2026-05-07 00:05 -50.28328 -72.05589 642 ft 4 kts 175°
2026-05-07 00:06 -50.28315 -72.05590 642 ft 0 kts 175°
2026-05-07 00:06 -50.28310 -72.05591 641 ft 3 kts 175°
2026-05-07 00:06 -50.28290 -72.05593 641 ft 3 kts 186°
2026-05-07 00:06 -50.28274 -72.05579 642 ft 3 kts 243°
2026-05-07 00:07 -50.28268 -72.05553 642 ft 0 kts 261°
2026-05-07 00:07 -50.28270 -72.05576 642 ft 3 kts 263°
2026-05-07 00:07 -50.28272 -72.05605 641 ft 3 kts 265°
2026-05-07 00:08 -50.28274 -72.05633 640 ft 3 kts 264°
2026-05-07 00:08 -50.28275 -72.05662 640 ft 3 kts 265°
2026-05-07 00:08 -50.28276 -72.05667 642 ft 0 kts 265°
2026-05-07 00:09 -50.28276 -72.05677 641 ft 1 kts 265°
2026-05-07 00:10 -50.28278 -72.05701 640 ft 4 kts 265°
2026-05-07 00:10 -50.28283 -72.05791 640 ft 13 kts 265°
2026-05-07 00:10 -50.28293 -72.05973 640 ft 21 kts 264°
2026-05-07 00:10 -50.28308 -72.06237 640 ft 23 kts 265°
2026-05-07 00:11 -50.28293 -72.06379 641 ft 12 kts 324°
2026-05-07 00:11 -50.28219 -72.06402 640 ft 11 kts 13°
2026-05-07 00:11 -50.28199 -72.06388 640 ft 0 kts 37°
2026-05-07 00:14 -50.28199 -72.06387 640 ft 2 kts 38°
2026-05-07 00:14 -50.28183 -72.06358 640 ft 7 kts 49°
2026-05-07 00:14 -50.28123 -72.06239 643 ft 21 kts 53°
2026-05-07 00:15 -50.28056 -72.05940 641 ft 50 kts 84°
2026-05-07 00:15 -50.27997 -72.04955 643 ft 129 kts 85°
2026-05-07 00:15 -50.27888 -72.03235 822 ft 180 kts 83°
2026-05-07 00:15 -50.27779 -72.01337 2107 ft 165 kts 84°
2026-05-07 00:16 -50.27668 -71.99552 3142 ft 171 kts 86°
2026-05-07 00:16 -50.27552 -71.97537 3489 ft 201 kts 87°
2026-05-07 00:16 -50.27421 -71.95200 3725 ft 231 kts 87°
2026-05-07 00:16 -50.27265 -71.92570 4003 ft 260 kts 86°
2026-05-07 00:17 -50.27082 -71.89586 4273 ft 290 kts 85°
2026-05-07 00:17 -50.26878 -71.86297 4633 ft 314 kts 86°
2026-05-07 00:17 -50.26663 -71.82837 5349 ft 324 kts 86°
2026-05-07 00:17 -50.26443 -71.79311 6244 ft 327 kts 85°
2026-05-07 00:18 -50.26221 -71.75748 7098 ft 331 kts 85°
2026-05-07 00:18 -50.25995 -71.72136 7861 ft 339 kts 85°
2026-05-07 00:18 -50.25760 -71.68398 8109 ft 361 kts 85°
2026-05-07 00:18 -50.25545 -71.64428 8646 ft 371 kts 90°
2026-05-07 00:19 -50.26030 -71.60464 9386 ft 373 kts 115°
2026-05-07 00:19 -50.27402 -71.57038 10172 ft 374 kts 130°
2026-05-07 00:19 -50.29156 -71.53988 10788 ft 380 kts 133°
2026-05-07 00:19 -50.30967 -71.51005 11430 ft 385 kts 134°
2026-05-07 00:20 -50.32828 -71.47956 12120 ft 389 kts 133°
2026-05-07 00:20 -50.34706 -71.44850 12689 ft 396 kts 133°
2026-05-07 00:20 -50.36591 -71.41696 13433 ft 398 kts 132°
2026-05-07 00:20 -50.38486 -71.38495 14065 ft 402 kts 131°
2026-05-07 00:21 -50.40402 -71.35239 14580 ft 408 kts 131°
2026-05-07 00:21 -50.42336 -71.31940 15092 ft 414 kts 131°
2026-05-07 00:21 -50.44272 -71.28634 15618 ft 419 kts 131°
2026-05-07 00:21 -50.46253 -71.25247 16152 ft 424 kts 131°
2026-05-07 00:22 -50.48264 -71.21805 16654 ft 429 kts 131°
2026-05-07 00:22 -50.50290 -71.18332 17168 ft 434 kts 131°
2026-05-07 00:22 -50.52343 -71.14808 17663 ft 439 kts 131°
2026-05-07 00:22 -50.54418 -71.11240 18170 ft 444 kts 131°
2026-05-07 00:23 -50.56512 -71.07632 18569 ft 450 kts 131°
2026-05-07 00:23 -50.58634 -71.03972 18961 ft 455 kts 131°
2026-05-07 00:23 -50.60776 -71.00273 19439 ft 458 kts 131°
2026-05-07 00:23 -50.62923 -70.96560 19910 ft 460 kts 131°
2026-05-07 00:24 -50.65088 -70.92810 20354 ft 464 kts 130°
2026-05-07 00:24 -50.67234 -70.89087 20771 ft 467 kts 130°
2026-05-07 00:24 -50.69427 -70.85277 21192 ft 471 kts 130°
2026-05-07 00:24 -50.71632 -70.81443 21647 ft 473 kts 130°
2026-05-07 00:25 -50.73852 -70.77594 22056 ft 476 kts 132°
2026-05-07 00:25 -50.76420 -70.74252 22378 ft 483 kts 149°
2026-05-07 00:25 -50.79404 -70.71775 22815 ft 485 kts 153°
2026-05-07 00:25 -50.82426 -70.69350 23197 ft 488 kts 153°
2026-05-07 00:26 -50.85456 -70.66874 23539 ft 491 kts 152°
2026-05-07 00:26 -50.88490 -70.64334 23851 ft 494 kts 152°
2026-05-07 00:26 -50.91491 -70.61777 24178 ft 496 kts 151°
2026-05-07 00:26 -50.94540 -70.59154 24522 ft 497 kts 151°
2026-05-07 00:27 -50.97584 -70.56527 24843 ft 499 kts 151°
2026-05-07 00:27 -51.00654 -70.53880 25140 ft 501 kts 151°
2026-05-07 00:27 -51.03682 -70.51257 25419 ft 503 kts 150°
2026-05-07 00:27 -51.06505 -70.47964 25649 ft 504 kts 133°
2026-05-07 00:28 -51.08686 -70.43609 25976 ft 502 kts 124°
2026-05-07 00:28 -51.10764 -70.39126 26288 ft 504 kts 124°
2026-05-07 00:28 -51.12865 -70.34658 26650 ft 503 kts 125°
2026-05-07 00:28 -51.14958 -70.30275 27515 ft 491 kts 126°
2026-05-07 00:29 -51.17017 -70.26003 28427 ft 480 kts 126°
2026-05-07 00:29 -51.19032 -70.21838 29350 ft 469 kts 126°
2026-05-07 00:30 -51.24868 -70.09758 31037 ft 457 kts 126°
2026-05-07 00:30 -51.26821 -70.05696 31025 ft 464 kts 126°
2026-05-07 00:30 -51.30124 -69.98808 31064 ft 474 kts 126°
2026-05-07 00:31 -51.34170 -69.90345 31054 ft 482 kts 126°
2026-05-07 00:31 -51.38248 -69.81791 31057 ft 483 kts 126°
2026-05-07 00:32 -51.42323 -69.73217 31049 ft 483 kts 126°
2026-05-07 00:32 -51.46350 -69.64711 31047 ft 481 kts 126°
2026-05-07 00:33 -51.50387 -69.56157 31043 ft 479 kts 126°
2026-05-07 00:33 -51.54404 -69.47617 31038 ft 477 kts 126°
2026-05-07 00:34 -51.58403 -69.39119 31040 ft 476 kts 128°
2026-05-07 00:34 -51.60675 -69.35245 31041 ft 476 kts 139°
2026-05-07 00:34 -51.63266 -69.32027 31054 ft 475 kts 147°
2026-05-07 00:35 -51.69159 -69.27308 31057 ft 473 kts 158°
2026-05-07 00:35 -51.75234 -69.23199 31044 ft 473 kts 159°
2026-05-07 00:36 -51.81313 -69.19035 31047 ft 474 kts 158°
2026-05-07 00:36 -51.87441 -69.14757 31059 ft 485 kts 158°
2026-05-07 00:37 -51.93698 -69.10347 31052 ft 496 kts 158°
2026-05-07 00:37 -52.00037 -69.05862 31042 ft 502 kts 158°
2026-05-07 00:38 -52.06434 -69.01324 31025 ft 501 kts 158°
2026-05-07 00:38 -52.12822 -68.96780 31032 ft 500 kts 158°
2026-05-07 00:39 -52.19201 -68.92229 31035 ft 500 kts 157°
2026-05-07 00:39 -52.25537 -68.87695 31037 ft 499 kts 157°
2026-05-07 00:40 -52.28683 -68.85438 31018 ft 488 kts 157°
2026-05-07 00:40 -52.31749 -68.83233 31022 ft 476 kts 157°
2026-05-07 00:40 -52.37772 -68.78896 31040 ft 472 kts 157°
2026-05-07 00:41 -52.43783 -68.74557 31051 ft 472 kts 157°
2026-05-07 00:41 -52.49802 -68.70199 31044 ft 473 kts 157°
2026-05-07 00:42 -52.55823 -68.65824 31047 ft 473 kts 157°
2026-05-07 00:42 -52.61807 -68.61463 31048 ft 473 kts 157°
2026-05-07 00:43 -52.67834 -68.57058 31047 ft 473 kts 157°
2026-05-07 00:43 -52.73856 -68.52642 31049 ft 473 kts 157°
2026-05-07 00:44 -52.79864 -68.48224 31054 ft 472 kts 157°
2026-05-07 00:44 -52.85865 -68.43803 31052 ft 472 kts 157°
2026-05-07 00:45 -52.91870 -68.39370 31054 ft 472 kts 157°
2026-05-07 00:45 -52.97820 -68.34962 31059 ft 471 kts 157°
2026-05-07 00:46 -53.03805 -68.30514 31061 ft 471 kts 157°
2026-05-07 00:46 -53.09791 -68.26052 31062 ft 471 kts 157°
2026-05-07 00:47 -53.15772 -68.21580 31064 ft 470 kts 157°
2026-05-07 00:47 -53.21746 -68.17099 31067 ft 470 kts 157°
2026-05-07 00:48 -53.27717 -68.12606 31073 ft 470 kts 157°
2026-05-07 00:48 -53.33650 -68.08129 31069 ft 470 kts 157°
2026-05-07 00:49 -53.39645 -68.03590 31071 ft 470 kts 157°
2026-05-07 00:49 -53.45563 -67.99096 31039 ft 470 kts 157°
2026-05-07 00:50 -53.48549 -67.96824 30639 ft 470 kts 156°
2026-05-07 00:50 -53.51500 -67.94573 30227 ft 463 kts 156°
2026-05-07 00:50 -53.54420 -67.92343 29710 ft 459 kts 156°
2026-05-07 00:50 -53.57306 -67.90136 29259 ft 453 kts 156°
2026-05-07 00:51 -53.60164 -67.87947 28784 ft 447 kts 156°
2026-05-07 00:51 -53.62978 -67.85788 28338 ft 442 kts 156°
2026-05-07 00:51 -53.65766 -67.83647 27881 ft 438 kts 156°
2026-05-07 00:51 -53.68529 -67.81523 27425 ft 434 kts 156°
2026-05-07 00:52 -53.71265 -67.79416 26969 ft 430 kts 156°
2026-05-07 00:52 -53.73971 -67.77347 26541 ft 425 kts 159°
2026-05-07 00:52 -53.76794 -67.75999 26078 ft 418 kts 175°
2026-05-07 00:52 -53.79625 -67.75888 25706 ft 409 kts 189°
2026-05-07 00:53 -53.82386 -67.76808 25281 ft 401 kts 199°
2026-05-07 00:53 -53.85051 -67.78127 24865 ft 398 kts 200°
2026-05-07 00:53 -53.87695 -67.79482 24435 ft 396 kts 200°
2026-05-07 00:53 -53.90327 -67.80836 24018 ft 394 kts 200°
2026-05-07 00:54 -53.92939 -67.82172 23586 ft 392 kts 200°
2026-05-07 00:54 -53.95550 -67.83495 23089 ft 390 kts 200°
2026-05-07 00:54 -53.98148 -67.84803 22651 ft 387 kts 200°
2026-05-07 00:54 -54.00718 -67.86090 22211 ft 384 kts 200°
2026-05-07 00:55 -54.03268 -67.87365 21834 ft 380 kts 199°
2026-05-07 00:55 -54.05798 -67.88630 21400 ft 378 kts 199°
2026-05-07 00:55 -54.08317 -67.89890 20976 ft 376 kts 199°
2026-05-07 00:55 -54.10820 -67.91143 20567 ft 373 kts 199°
2026-05-07 00:56 -54.13305 -67.92389 20163 ft 371 kts 199°
2026-05-07 00:56 -54.15769 -67.93626 19765 ft 368 kts 199°
2026-05-07 00:56 -54.18198 -67.94847 19367 ft 366 kts 199°
2026-05-07 00:56 -54.20637 -67.96074 18968 ft 363 kts 199°
2026-05-07 00:57 -54.23062 -67.97296 18573 ft 361 kts 198°
2026-05-07 00:57 -54.25468 -67.98510 18136 ft 359 kts 198°
2026-05-07 00:57 -54.27860 -67.99718 17716 ft 357 kts 198°
2026-05-07 00:57 -54.30211 -68.00907 17335 ft 354 kts 198°
2026-05-07 00:58 -54.32559 -68.02096 16935 ft 351 kts 198°
2026-05-07 00:58 -54.34897 -68.03281 16554 ft 347 kts 198°
2026-05-07 00:58 -54.37206 -68.04453 16162 ft 345 kts 198°
2026-05-07 00:58 -54.39498 -68.05618 15781 ft 342 kts 198°
2026-05-07 00:59 -54.44030 -68.07925 15026 ft 337 kts 197°
2026-05-07 00:59 -54.46274 -68.09069 14662 ft 335 kts 197°
2026-05-07 00:59 -54.48503 -68.10208 14293 ft 333 kts 197°
2026-05-07 01:00 -54.50691 -68.11326 13924 ft 331 kts 196°
2026-05-07 01:00 -54.52894 -68.12451 13509 ft 329 kts 196°
2026-05-07 01:00 -54.55082 -68.13572 13155 ft 326 kts 196°
2026-05-07 01:00 -54.57250 -68.14684 12770 ft 323 kts 196°
2026-05-07 01:01 -54.59396 -68.15787 12406 ft 320 kts 197°
2026-05-07 01:01 -54.61517 -68.16878 12056 ft 317 kts 197°
2026-05-07 01:01 -54.63629 -68.17962 11669 ft 316 kts 197°
2026-05-07 01:01 -54.65735 -68.19047 11288 ft 314 kts 197°
2026-05-07 01:02 -54.67791 -68.20107 11037 ft 308 kts 197°
2026-05-07 01:02 -54.69814 -68.21151 10899 ft 299 kts 197°
2026-05-07 01:02 -54.71806 -68.22180 10760 ft 290 kts 197°
2026-05-07 01:02 -54.73686 -68.23152 10633 ft 282 kts 197°
2026-05-07 01:03 -54.75538 -68.24110 10521 ft 273 kts 197°
2026-05-07 01:03 -54.77333 -68.25040 10406 ft 265 kts 197°
2026-05-07 01:03 -54.79075 -68.25943 10300 ft 257 kts 197°
2026-05-07 01:03 -54.80765 -68.26820 10195 ft 249 kts 197°
2026-05-07 01:04 -54.82445 -68.27204 10071 ft 241 kts 169°
2026-05-07 01:04 -54.83954 -68.26052 9881 ft 242 kts 139°
2026-05-07 01:04 -54.85031 -68.23780 9627 ft 247 kts 118°
2026-05-07 01:04 -54.85778 -68.21100 9326 ft 251 kts 114°
2026-05-07 01:05 -54.86469 -68.18313 8976 ft 252 kts 113°
2026-05-07 01:05 -54.87158 -68.15506 8674 ft 253 kts 113°
2026-05-07 01:05 -54.87852 -68.12702 8365 ft 253 kts 114°
2026-05-07 01:05 -54.88556 -68.09884 8024 ft 255 kts 114°
2026-05-07 01:06 -54.89268 -68.07052 7686 ft 256 kts 114°
2026-05-07 01:06 -54.89988 -68.04203 7360 ft 258 kts 114°
2026-05-07 01:06 -54.90713 -68.01344 7034 ft 259 kts 114°
2026-05-07 01:06 -54.91440 -67.98475 6713 ft 260 kts 114°
2026-05-07 01:07 -54.92168 -67.95598 6386 ft 261 kts 114°
2026-05-07 01:07 -54.92874 -67.92766 6108 ft 252 kts 111°
2026-05-07 01:07 -54.92999 -67.89882 5938 ft 235 kts 72°
2026-05-07 01:07 -54.92063 -67.87740 5771 ft 218 kts 28°
2026-05-07 01:08 -54.90656 -67.87069 5567 ft 208 kts 360°
2026-05-07 01:08 -54.89274 -67.87643 5100 ft 211 kts 328°
2026-05-07 01:08 -54.88260 -67.89411 4721 ft 205 kts 296°
2026-05-07 01:08 -54.87846 -67.91678 4457 ft 192 kts 278°
2026-05-07 01:09 -54.87607 -67.93904 4196 ft 183 kts 278°
2026-05-07 01:09 -54.87374 -67.96055 4011 ft 181 kts 278°
2026-05-07 01:09 -54.87131 -67.98285 3806 ft 196 kts 279°
2026-05-07 01:09 -54.86873 -68.00651 3555 ft 201 kts 279°
2026-05-07 01:10 -54.86614 -68.03017 3222 ft 196 kts 279°
2026-05-07 01:10 -54.86362 -68.05307 2930 ft 189 kts 279°
2026-05-07 01:10 -54.86122 -68.07473 2667 ft 177 kts 279°
2026-05-07 01:10 -54.85897 -68.09508 2390 ft 169 kts 280°
2026-05-07 01:11 -54.85680 -68.11478 2171 ft 166 kts 280°
2026-05-07 01:11 -54.85470 -68.13387 1860 ft 158 kts 281°
2026-05-07 01:11 -54.85268 -68.15212 1758 ft 153 kts 281°
2026-05-07 01:11 -54.85061 -68.17074 1495 ft 157 kts 281°
2026-05-07 01:12 -54.84844 -68.18906 1251 ft 156 kts 284°
2026-05-07 01:12 -54.84544 -68.20711 976 ft 156 kts 286°
2026-05-07 01:12 -54.84241 -68.22500 725 ft 152 kts 283°
2026-05-07 01:12 -54.84127 -68.24311 481 ft 150 kts 267°
2026-05-07 01:13 -54.84203 -68.26114 288 ft 149 kts 266°
2026-05-07 01:13 -54.84267 -68.27892 99 ft 146 kts 267°
2026-05-07 01:13 -54.84327 -68.29502 86 ft 119 kts 265°
2026-05-07 01:13 -54.84372 -68.30673 95 ft 71 kts 266°
2026-05-07 01:14 -54.84394 -68.31182 136 ft 25 kts 266°
2026-05-07 01:14 -54.84359 -68.31303 84 ft 10 kts 345°
2026-05-07 01:14 -54.84287 -68.31318 84 ft 11 kts 356°
2026-05-07 01:14 -54.84216 -68.31325 83 ft 10 kts 356°
2026-05-07 01:15 -54.84155 -68.31332 82 ft 8 kts 356°
2026-05-07 01:15 -54.84107 -68.31308 87 ft 7 kts 33°
2026-05-07 01:15 -54.84066 -68.31277 83 ft 7 kts 20°
2026-05-07 01:15 -54.84037 -68.31258 83 ft 2 kts 20°
2026-05-07 01:16 -54.84032 -68.31255 84 ft 2 kts 20°
2026-05-07 01:16 -54.84030 -68.31254 84 ft 0 kts 20°